FENGYUN 1C DEB

Satellite information

Favourite Embed

Satellite Type and Status

DEBRISIN ORBIT

Key statistics

Satellite FENGYUN 1C DEB at a glance.

Uptime

9610

Days in orbit

Revolutions

≈ 14.2

Per day

Orbit

SSO

Sun Synchronous Orbit

Inclination

99.1

Latest

Satellite identification and parameters

Extended collection of information and parameters for FENGYUN 1C DEB.

Object identification

Identified? True

Debris? True

Object name: FENGYUN 1C DEB

International designator: 1999-025AWK

Object number (NORAD): 30849

Object ID (CCSDS): 30849

Country: PEOPLES REPUBLIC OF CHINA (PRC)

Current information (Y/N): Y

RCS size: SMALL

Orbital parameters

Period: 101.549 minutes

Inclination: 99.057 deg

SMA: 7210.129 km

Apoapsis: 866.694 km

Periapsis: 797.293 km

RAAN: 298.999 deg

Eccentricy: 0.00481273

Argument of periapsis: 306.0372 deg

Mean anomaly: 83.1852 deg

Mean motion: 14.18039227 rev/day

Mean motion (dot): 0.00002526 rev/day2

B* drag term: 0.0012407795 1/REarth

Two-line elements (TLE)

Creation date: Aug. 29, 2025, 9:54 a.m.

Reference frame: TEME

Reference center: EARTH

Epoch: Aug. 29, 2025, 2:39 a.m. UTC

TLE line 0: 0 FENGYUN 1C DEB

TLE line 1: 1 30849U 99025AWK 25241.11105413 .00002526 00000-0 12408-2 0 9991

TLE line 2: 2 30849 99.0570 298.9990 0048127 306.0372 83.1852 14.18039227948752

Live tracking on map

Real-time ground track for satellite FENGYUN 1C DEB.

In-orbit conjunctions

A list of the most updated potential collisions computed for object FENGYUN 1C DEB.

Target Orbit TCA Probability of collision Miss distance Type
SL-12 R/B(AUX MOTOR) LEO 2024-12-06 00:42:13 0.0001262796 28.0 (m) ROCKET BODY
METEOR 1-24 LEO 2024-09-19 18:27:48 0.001079147 128.0 (m) PAYLOAD
METEOR 1-21 LEO 2024-09-14 01:03:25 0.0002302301 286.0 (m) PAYLOAD

Associated space launch

Chinese polar orbiting meteorological satellite

FENGYUN 1C DEB was lifted into orbit during the mission ‘Long March 4B | Feng Yun 1C’, on board a Long March 4B space rocket.

The launch took place on May 10, 1999, 1:33 a.m. from Launch Complex 7.

For more information about the launch, click the button.

Launch to space Long March 4B | Feng Yun 1C
Long March 4B | Feng Yun 1C

Agency: N/A

Status: Launch Successful

Launch date: May 10, 1999, 1:33 a.m. UTC

Rocket: Long March 4B

Launch pad: Launch Complex 7

Location: Taiyuan Satellite Launch Center, People's Republic of China

...

Latest news about this satellite

There are no fresh news available about this satellite. Check back as we update our databases every day.


Newsletter sign-up

Weekly statistics, charts and insights to help you stay on top of the space industry.